Weather History for Wise, VA

Change the Weather History Date:

Wednesday, June 25, 2014

  Actual Average Record
Temperature  
Mean Temperature 72 °F -  
Max Temperature 80 °F 77 °F 89 °F (1998)
Min Temperature 64 °F 58 °F 55 °F (2001)
Cooling Degree Days 7    
Growing Degree Days 22 (Base 50)    
Moisture  
Dew Point 63 °F    
Average Humidity 78    
Maximum Humidity 100    
Minimum Humidity 51    
Precipitation  
Precipitation 0.07 in - - ()
Sea Level Pressure  
Sea Level Pressure 30.08 in    
Wind  
Wind Speed 9 mph (WSW)    
Max Wind Speed 17 mph    
Max Gust Speed 22 mph    
Visibility 10 miles    
Events Rain    
Averages and records for this station are not official NWS values.
T = Trace of Precipitation, MM = Missing Value Source: NWS Daily Summary

Daily Weather History Graph

Daily Weather History Graph

Search for Another Location

Airport:

Trip Planner

Search our weather history database for the weather conditions in past years. The results will help you decide how hot, cold, wet, or windy it might be!

Date:

Astronomy

Jun. 25, 2014 Rise Set
Actual Time 6:11 AM EDT 8:53 PM EDT
Civil Twilight 5:41 AM EDT 9:24 PM EDT
Nautical Twilight 5:02 AM EDT 10:02 PM EDT
Astronomical Twilight 4:19 AM EDT 10:46 PM EDT
Moon 5:00 AM EDT (6/25) 7:26 PM EDT (6/25)
Length of Visible Light 15h 43m
Length of Day
14h 41m
Waning Crescent, 3% of the Moon is Illuminated
Jun 25
Waning Crescent
Jun 27
New
Jul 5
First Quarter
Jul 12
Full
Jul 18
Last Quarter

Hourly Weather History & Observations

Time (EDT) Temp. Heat Index Dew Point Humidity Pressure Visibility Wind Dir Wind Speed Gust Speed Precip Events Conditions
12:15 AM 69.8 °F - 64.4 °F 83% 30.07 in 10.0 mi South 9.2 mph - N/A   Clear
12:35 AM 69.8 °F - 64.4 °F 83% 30.09 in 10.0 mi SSW 17.3 mph 21.9 mph 0.01 in   Mostly Cloudy
12:55 AM 68.0 °F - 59.0 °F 73% 30.09 in 10.0 mi SW 11.5 mph 18.4 mph 0.02 in Rain Rain
1:15 AM 66.2 °F - 59.0 °F 78% 30.09 in 10.0 mi SSW 11.5 mph 16.1 mph 0.02 in Rain Rain
1:35 AM 68.0 °F - 60.8 °F 78% 30.08 in 10.0 mi SSW 10.4 mph 16.1 mph 0.02 in   Overcast
1:55 AM 68.0 °F - 60.8 °F 78% 30.08 in 10.0 mi SW 11.5 mph - 0.02 in   Overcast
2:15 AM 68.0 °F - 60.8 °F 78% 30.07 in 10.0 mi SW 11.5 mph 16.1 mph N/A   Mostly Cloudy
2:35 AM 66.2 °F - 62.6 °F 88% 30.07 in 10.0 mi SW 12.7 mph 18.4 mph N/A   Scattered Clouds
2:55 AM 66.2 °F - 62.6 °F 88% 30.07 in 10.0 mi SW 15.0 mph 20.7 mph N/A   Scattered Clouds
3:15 AM 66.2 °F - 62.6 °F 88% 30.07 in 10.0 mi SW 13.8 mph 18.4 mph N/A   Scattered Clouds
3:35 AM 66.2 °F - 62.6 °F 88% 30.06 in 10.0 mi SW 9.2 mph - N/A   Clear
3:55 AM 64.4 °F - 62.6 °F 94% 30.05 in 10.0 mi WSW 6.9 mph - N/A   Scattered Clouds
4:15 AM 66.2 °F - 64.4 °F 94% 30.05 in 10.0 mi WSW 4.6 mph - N/A   Mostly Cloudy
4:35 AM 66.2 °F - 64.4 °F 94% 30.04 in 10.0 mi SSW 5.8 mph - N/A   Overcast
4:55 AM 64.4 °F - 64.4 °F 100% 30.04 in 10.0 mi SSW 3.5 mph - N/A   Overcast
5:15 AM 66.2 °F - 64.4 °F 94% 30.04 in 10.0 mi SSW 6.9 mph - N/A   Overcast
5:35 AM 66.2 °F - 64.4 °F 94% 30.04 in 10.0 mi SSW 4.6 mph - N/A   Overcast
5:55 AM 66.2 °F - 64.4 °F 94% 30.05 in 10.0 mi SSW 5.8 mph - N/A   Overcast
6:15 AM 66.2 °F - 64.4 °F 94% 30.05 in 10.0 mi SSW 4.6 mph - N/A   Overcast
6:35 AM 66.2 °F - 64.4 °F 94% 30.05 in 10.0 mi SSW 3.5 mph - N/A   Overcast
6:55 AM 68.0 °F - 66.2 °F 94% 30.05 in 10.0 mi SW 4.6 mph - N/A   Overcast
7:15 AM 68.0 °F - 66.2 °F 94% 30.05 in 10.0 mi WSW 8.1 mph - N/A   Overcast
7:35 AM 68.0 °F - 66.2 °F 94% 30.05 in 10.0 mi SW 12.7 mph 16.1 mph N/A   Overcast
7:55 AM 68.0 °F - 66.2 °F 94% 30.07 in 5.0 mi SW 12.7 mph - N/A   Overcast
8:15 AM 68.0 °F - 66.2 °F 94% 30.07 in 5.0 mi SW 9.2 mph - N/A   Overcast
8:35 AM 68.0 °F - 68.0 °F 100% 30.07 in 5.0 mi SW 9.2 mph - N/A   Drizzle
8:55 AM 68.0 °F - 68.0 °F 100% 30.08 in 10.0 mi SW 8.1 mph - N/A   Overcast
9:15 AM 68.0 °F - 68.0 °F 100% 30.09 in 10.0 mi SW 10.4 mph - N/A   Overcast
9:35 AM 68.0 °F - 68.0 °F 100% 30.09 in 10.0 mi SW 8.1 mph - N/A   Overcast
9:55 AM 69.8 °F - 68.0 °F 94% 30.09 in 10.0 mi SW 5.8 mph - N/A   Overcast
10:15 AM 69.8 °F - 68.0 °F 94% 30.09 in 5.0 mi SW 9.2 mph - N/A Rain Light Rain
10:35 AM 68.0 °F - 68.0 °F 100% 30.09 in 7.0 mi SW 10.4 mph - N/A Rain Light Rain
10:55 AM 68.0 °F - 68.0 °F 100% 30.10 in 10.0 mi West 9.2 mph - 0.01 in Rain Light Rain
11:15 AM 68.0 °F - 68.0 °F 100% 30.11 in 5.0 mi West 10.4 mph - 0.02 in Rain Light Rain
11:35 AM 69.8 °F - 68.0 °F 94% 30.11 in 10.0 mi WNW 8.1 mph - 0.02 in   Overcast
11:55 AM 69.8 °F - 68.0 °F 94% 30.11 in 10.0 mi West 10.4 mph - 0.02 in   Overcast
12:15 PM 69.8 °F - 68.0 °F 94% 30.10 in 10.0 mi NW 5.8 mph - N/A   Overcast
12:35 PM 71.6 °F - 68.0 °F 88% 30.10 in 10.0 mi West 6.9 mph - N/A   Overcast
12:55 PM 73.4 °F - 66.2 °F 78% 30.10 in 10.0 mi WNW 9.2 mph - N/A   Overcast
1:15 PM 75.2 °F - 68.0 °F 78% 30.11 in 10.0 mi West 9.2 mph 17.3 mph N/A   Overcast
1:35 PM 75.2 °F - 66.2 °F 73% 30.11 in 10.0 mi West 11.5 mph 17.3 mph N/A   Overcast
1:55 PM 75.2 °F - 60.8 °F 61% 30.11 in 10.0 mi WNW 15.0 mph 19.6 mph N/A   Mostly Cloudy
2:15 PM 77.0 °F - 60.8 °F 57% 30.10 in 10.0 mi WNW 11.5 mph 16.1 mph N/A   Mostly Cloudy
2:35 PM 77.0 °F - 60.8 °F 57% 30.10 in 10.0 mi WNW 11.5 mph 16.1 mph N/A   Scattered Clouds
2:55 PM 78.8 °F - 60.8 °F 54% 30.09 in 10.0 mi WNW 8.1 mph - N/A   Mostly Cloudy
3:15 PM 78.8 °F - 59.0 °F 51% 30.09 in 10.0 mi WNW 10.4 mph 16.1 mph N/A   Mostly Cloudy
3:35 PM 78.8 °F - 59.0 °F 51% 30.09 in 10.0 mi WNW 9.2 mph - N/A   Mostly Cloudy
3:55 PM 78.8 °F - 59.0 °F 51% 30.09 in 10.0 mi WNW 9.2 mph 18.4 mph N/A   Mostly Cloudy
4:15 PM 80.6 °F 81.5 °F 60.8 °F 51% 30.09 in 10.0 mi West 8.1 mph - N/A   Scattered Clouds
4:35 PM 78.8 °F - 60.8 °F 54% 30.09 in 10.0 mi NW 5.8 mph 9.2 mph N/A   Mostly Cloudy
4:55 PM 78.8 °F - 59.0 °F 51% 30.09 in 10.0 mi WNW 6.9 mph - N/A   Mostly Cloudy
5:15 PM 80.6 °F 81.5 °F 60.8 °F 51% 30.08 in 10.0 mi NW 9.2 mph - N/A   Scattered Clouds
5:35 PM 78.8 °F - 59.0 °F 51% 30.08 in 10.0 mi WNW 6.9 mph - N/A   Scattered Clouds
5:55 PM 78.8 °F - 60.8 °F 54% 30.07 in 10.0 mi NW 6.9 mph - N/A   Scattered Clouds
6:15 PM 77.0 °F - 59.0 °F 54% 30.07 in 10.0 mi NW 5.8 mph - N/A   Scattered Clouds
6:35 PM 77.0 °F - 60.8 °F 57% 30.07 in 10.0 mi WNW 5.8 mph - N/A   Scattered Clouds
6:55 PM 77.0 °F - 60.8 °F 57% 30.07 in 10.0 mi West 4.6 mph - N/A   Scattered Clouds
7:15 PM 77.0 °F - 60.8 °F 57% 30.08 in 10.0 mi WNW 6.9 mph - N/A   Scattered Clouds
7:35 PM 73.4 °F - 60.8 °F 65% 30.08 in 10.0 mi West 6.9 mph - N/A   Mostly Cloudy
8:15 PM 71.6 °F - 60.8 °F 69% 30.09 in 10.0 mi NNW 5.8 mph - N/A   Overcast
8:35 PM 71.6 °F - 60.8 °F 69% 30.09 in 10.0 mi NW 3.5 mph - N/A   Overcast
8:55 PM 69.8 °F - 60.8 °F 73% 30.09 in 10.0 mi NNW 4.6 mph - N/A   Overcast
9:15 PM 69.8 °F - 60.8 °F 73% 30.09 in 10.0 mi WNW 3.5 mph - N/A   Overcast
9:35 PM 69.8 °F - 60.8 °F 73% 30.10 in 10.0 mi Calm Calm - N/A   Mostly Cloudy
9:55 PM 69.8 °F - 59.0 °F 68% 30.11 in 10.0 mi WNW 3.5 mph - N/A   Mostly Cloudy
10:15 PM 69.8 °F - 59.0 °F 68% 30.12 in 10.0 mi WSW 4.6 mph - N/A   Mostly Cloudy
10:35 PM 69.8 °F - 59.0 °F 68% 30.12 in 10.0 mi West 4.6 mph - N/A   Scattered Clouds
10:55 PM 68.0 °F - 59.0 °F 73% 30.12 in 10.0 mi West 4.6 mph - N/A   Scattered Clouds
11:15 PM 68.0 °F - 59.0 °F 73% 30.13 in 10.0 mi West 5.8 mph - N/A   Scattered Clouds